Ocala, FL

9:54 AM EST on November 22, 2017 (GMT -0500)
Ocala Regional-Taylor

Weather History for KOCF - May, 2013

Change the Weather History Date:

Wednesday, May 15, 2013

  Actual Average Record
Temperature  
Mean Temperature 68 °F -  
Max Temperature 86 °F 86 °F 93 °F (2017)
Min Temperature 51 °F 60 °F 51 °F (2013)
Cooling Degree Days 4    
Growing Degree Days 18 (Base 50)    
Moisture  
Dew Point 50 °F    
Average Humidity 58    
Maximum Humidity 82    
Minimum Humidity 23    
Precipitation  
Precipitation 0.00 in - - ()
Sea Level Pressure  
Sea Level Pressure 30.17 in    
Wind  
Wind Speed 1 mph (SSE)    
Max Wind Speed 8 mph    
Max Gust Speed -    
Visibility 10 miles    
Events      
Averages and records for this station are not official NWS values.
T = Trace of Precipitation, MM = Missing Value Source: NWS Daily Summary

Daily Weather History Graph

Daily Weather History Graph

Search for Another Location

Airport or City:

Trip Planner

Search our weather history database for the weather conditions in past years. The results will help you decide how hot, cold, wet, or windy it might be!

Date:

Astronomy

May. 15, 2013 Rise Set
Actual Time 6:36 AM EDT 8:13 PM EDT
Civil Twilight 6:11 AM EDT 8:39 PM EDT
Nautical Twilight 5:39 AM EDT 9:11 PM EDT
Astronomical Twilight 5:07 AM EDT 9:43 PM EDT
Moon 11:07 AM EDT (5/15) 12:02 AM EDT (5/15)
Length of Visible Light 14h 28m
Length of Day
13h 37m
Waxing Crescent, 26% of the Moon is Illuminated
May 15
Waxing Crescent
May 18
First Quarter
May 25
Full
May 31
Last Quarter
Jun 8
New

Hourly Weather History & Observations

Time (EDT) Temp. Dew Point Humidity Pressure Visibility Wind Dir Wind Speed Gust Speed Precip Events Conditions
12:15 AM 62.6 °F 48.2 °F 59% 30.22 in 10.0 mi Calm Calm - N/A   Clear
12:35 AM 62.6 °F 48.2 °F 59% 30.22 in 10.0 mi Calm Calm - N/A   Clear
12:55 AM 60.8 °F 48.2 °F 63% 30.22 in 10.0 mi North 3.5 mph - N/A   Clear
1:15 AM 59.0 °F 48.2 °F 67% 30.22 in 10.0 mi North - - N/A   Clear
1:35 AM 57.2 °F 48.2 °F 72% 30.22 in 10.0 mi North - - N/A   Clear
1:55 AM 57.2 °F 48.2 °F 72% 30.22 in 10.0 mi North 3.5 mph - N/A   Clear
2:15 AM 57.2 °F 48.2 °F 72% 30.21 in 10.0 mi Calm Calm - N/A   Clear
2:35 AM 55.4 °F 48.2 °F 77% 30.21 in 10.0 mi Calm Calm - N/A   Clear
2:55 AM 55.4 °F 48.2 °F 77% 30.20 in 10.0 mi Calm Calm - N/A   Clear
3:15 AM 55.4 °F 48.2 °F 77% 30.20 in 10.0 mi Calm Calm - N/A   Clear
3:35 AM 53.6 °F 46.4 °F 77% 30.20 in 10.0 mi Calm Calm - N/A   Clear
3:55 AM 53.6 °F 46.4 °F 77% 30.19 in 10.0 mi Calm Calm - N/A   Clear
4:15 AM 53.6 °F 46.4 °F 77% 30.19 in 10.0 mi Calm Calm - N/A   Clear
4:35 AM 53.6 °F 46.4 °F 77% 30.19 in 10.0 mi Calm Calm - N/A   Clear
4:55 AM 53.6 °F 46.4 °F 77% 30.18 in 10.0 mi Calm Calm - N/A   Clear
5:15 AM 51.8 °F 46.4 °F 82% 30.19 in 10.0 mi Calm Calm - N/A   Clear
5:35 AM 51.8 °F 46.4 °F 82% 30.19 in 10.0 mi North 3.5 mph - N/A   Clear
5:55 AM 51.8 °F 46.4 °F 82% 30.21 in 10.0 mi North 3.5 mph - N/A   Clear
6:15 AM 51.8 °F 46.4 °F 82% 30.21 in 10.0 mi Calm Calm - N/A   Clear
6:35 AM 51.8 °F 46.4 °F 82% 30.21 in 10.0 mi Calm Calm - N/A   Clear
6:50 AM 51.8 °F 46.4 °F 82% 30.21 in 10.0 mi Calm Calm - N/A   Clear
7:50 AM 62.6 °F 51.8 °F 68% 30.22 in 10.0 mi Calm Calm - N/A   Clear
8:50 AM 68.0 °F 57.2 °F 68% 30.24 in 10.0 mi Calm Calm - N/A   Clear
9:50 AM 75.2 °F 55.4 °F 50% 30.24 in 10.0 mi SSW 6.9 mph - N/A   Clear
10:50 AM 77.0 °F 51.8 °F 41% 30.24 in 10.0 mi South 5.8 mph - N/A   Clear
11:50 AM 80.6 °F 50.0 °F 34% 30.22 in 10.0 mi Calm Calm - N/A   Clear
12:50 PM 80.6 °F 48.2 °F 32% 30.21 in 10.0 mi NNE 6.9 mph - N/A   Clear
1:50 PM 82.4 °F 48.2 °F 30% 30.19 in 10.0 mi NNE 6.9 mph - N/A   Clear
2:50 PM 84.2 °F 42.8 °F 23% 30.16 in 10.0 mi Calm Calm - N/A   Clear
3:50 PM 86.0 °F 50.0 °F 29% 30.13 in 10.0 mi Calm Calm - N/A   Clear
4:47 PM 86.0 °F 51.8 °F 31% 30.10 in 10.0 mi Calm Calm - N/A   Clear
4:50 PM 86.0 °F 51.8 °F 31% 30.10 in 10.0 mi Calm Calm - N/A   Clear
5:50 PM 86.0 °F 51.8 °F 31% 30.09 in 10.0 mi South 8.1 mph - N/A   Clear
6:50 PM 84.2 °F 51.8 °F 33% 30.08 in 10.0 mi SE 4.6 mph - N/A   Clear
7:55 PM 82.4 °F 50.0 °F 32% 30.08 in 10.0 mi SSE 3.5 mph - N/A   Clear
8:15 PM 80.6 °F 50.0 °F 34% 30.08 in 10.0 mi South 4.6 mph - N/A   Clear
8:35 PM 78.8 °F 50.0 °F 36% 30.08 in 10.0 mi SSE 4.6 mph - N/A   Clear
8:55 PM 77.0 °F 50.0 °F 39% 30.09 in 10.0 mi Calm Calm - N/A   Clear
9:15 PM 71.6 °F 51.8 °F 50% 30.10 in 10.0 mi Calm Calm - N/A   Clear
9:35 PM 71.6 °F 51.8 °F 50% 30.11 in 10.0 mi SW 3.5 mph - N/A   Clear
9:55 PM 73.4 °F 51.8 °F 47% 30.12 in 10.0 mi Calm Calm - N/A   Clear
10:15 PM 73.4 °F 53.6 °F 50% 30.13 in 10.0 mi South 3.5 mph - N/A   Clear
10:35 PM 69.8 °F 53.6 °F 56% 30.13 in 10.0 mi Calm Calm - N/A   Clear
10:55 PM 69.8 °F 53.6 °F 56% 30.13 in 10.0 mi Calm Calm - N/A   Clear
11:15 PM 68.0 °F 53.6 °F 60% 30.13 in 10.0 mi SSW 4.6 mph - N/A   Clear
11:35 PM 66.2 °F 53.6 °F 64% 30.13 in 10.0 mi Calm Calm - N/A   Clear
11:55 PM 69.8 °F 53.6 °F 56% 30.13 in 10.0 mi South 4.6 mph - N/A   Clear